Location: Ballard
(38.3614°N, 94.1431°W)
Time: 14:58:16
(UTC-06:00)

Envisat - Pass Details

Date: 21 October 2019
Orbit: 764 x 766 km, 98.1° (Epoch: 13 November)

Event Time Altitude Azimuth Distance (km) Brightness Sun altitude
Rises 20:10:42 0° 193° (SSW) 3,217 6.4 -20.3°
Reaches altitude 10° 20:13:16 10° 204° (SSW) 2,295 5.7 -20.8°
Maximum altitude 20:17:39 29° 264° (W) 1,367 5.0 -21.7°
Drops below altitude 10° 20:22:04 10° 324° (NW) 2,308 6.0 -22.5°
Sets 20:24:40 0° 336° (NNW) 3,239 6.6 -23.1°
